FW7685 Weather Reports


time (UTC)temp
C
wind
direction
speed
KPH
gust
KPH
rain 1hr
cm
rain 24hr
cm
rain mn
cm
humidity
%
barometer
mb
20260507084434 13 41 1.6 4.8 0.00 0.00 0.00 50 1015.3
20260507084333 12 72 1.6 6.4 0.00 0.00 0.00 51 1015.2
20260507083433 12 45 1.6 6.4 0.00 0.00 0.00 52 1015.3
20260507082931 12 135 3.2 6.4 0.00 0.00 0.00 52 1015.2
20260507082844 12 72 3.2 8.0 0.00 0.00 0.00 53 1015.2
20260507081932 11 39 3.2 8.0 0.00 0.00 0.00 53 1015.3
20260507081434 11 89 1.6 4.8 0.00 0.00 0.00 54 1015.3
20260507080932 11 178 1.6 6.4 0.00 0.00 0.00 55 1015.2
20260507080434 10 117 1.6 6.4 0.00 0.00 0.00 57 1015.2
20260507075933 10 35 1.6 4.8 0.00 0.00 0.00 59 1015.2
20260507075435 10 135 1.6 4.8 0.00 0.00 0.00 60 1015.2
20260507074933 10 79 1.6 3.2 0.00 0.00 0.00 61 1015.2
20260507074433 9 254 1.6 4.8 0.00 0.00 0.00 62 1015.2
20260507073931 9 78 3.2 4.8 0.00 0.00 0.00 63 1015.1
20260507073550 8 1 3.2 6.4 0.00 0.00 0.00 64 1015.2
20260507072418 8 16 1.6 4.8 0.00 0.00 0.00 64 1015.1
20260507071916 7 89 1.6 3.2 0.00 0.00 0.00 64 1015.1
20260507071416 7 89 1.6 4.8 0.00 0.00 0.00 64 1015.0
20260507070917 7 79 1.6 4.8 0.00 0.00 0.00 64 1015.0
20260507070414 7 76 1.6 4.8 0.00 0.00 0.00 64 1015.0
20260507065913 7 56 1.6 4.8 0.00 0.00 0.00 63 1015.0
20260507065413 6 104 1.6 4.8 0.00 0.00 0.00 63 1015.0
20260507064906 6 56 1.6 4.8 0.00 0.00 0.00 63 1015.1
20260507064408 6 314 1.6 4.8 0.00 0.00 0.00 63 1015.0
20260507063906 6 324 1.6 4.8 0.00 0.00 0.00 63 1015.0
20260507063406 6 314 1.6 4.8 0.00 0.00 0.00 63 1015.0
20260507062906 6 314 3.2 4.8 0.00 0.00 0.00 63 1015.0
20260507062404 6 314 1.6 3.2 0.00 0.00 0.00 63 1014.9
20260507061902 6 296 1.6 3.2 0.00 0.00 0.00 63 1014.9
20260507061405 6 314 1.6 3.2 0.00 0.00 0.00 63 1014.8
20260507060902 6 306 1.6 3.2 0.00 0.00 0.00 63 1014.9
20260507060407 6 324 1.6 3.2 0.00 0.00 0.00 63 1014.8
20260507055903 6 314 0.0 3.2 0.00 0.00 0.00 63 1014.9
20260507055407 6 306 1.6 3.2 0.00 0.00 0.00 63 1014.7
20260507054905 6 1 1.6 3.2 0.00 0.00 0.00 63 1014.7
20260507054405 6 45 1.6 3.2 0.00 0.00 0.00 63 1014.7
20260507053903 6 45 1.6 3.2 0.00 0.00 0.00 63 1014.6
20260507053406 5 1 0.0 1.6 0.00 0.00 0.00 62 1014.6
20260507052904 5 223 0.0 1.6 0.00 0.00 0.00 62 1014.6
20260507052405 5 1 0.0 1.6 0.00 0.00 0.00 61 1014.5
20260507051904 5 314 0.0 1.6 0.00 0.00 0.00 61 1014.5
20260507051406 5 45 0.0 1.6 0.00 0.00 0.00 61 1014.5
20260507050905 5 324 0.0 1.6 0.00 0.00 0.00 61 1014.5
20260507050759 5 321 0.0 1.6 0.00 0.00 0.00 61 1014.5
20260507045904 5 1 0.0 1.6 0.00 0.00 0.00 61 1014.5
20260507045407 5 178 0.0 1.6 0.00 0.00 0.00 61 1014.5
20260507044906 5 269 0.0 1.6 0.00 0.00 0.00 61 1014.5
20260507044406 5 45 0.0 1.6 0.00 0.00 0.00 61 1014.5
20260507043904 5 45 0.0 1.6 0.00 0.00 0.00 61 1014.4
20260507043404 5 1 0.0 1.6 0.00 0.00 0.00 61 1014.4
20260507043256 6 331 0.0 3.2 0.00 0.00 0.00 61 1014.3
20260507042405 6 1 1.6 3.2 0.00 0.00 0.00 61 1014.3
20260507041904 6 314 0.0 1.6 0.00 0.00 0.00 61 1014.3
20260507041405 6 296 0.0 1.6 0.00 0.00 0.00 61 1014.4
20260507040903 6 331 0.0 1.6 0.00 0.00 0.00 61 1014.4
20260507040406 6 314 0.0 1.6 0.00 0.00 0.00 61 1014.4
20260507040037 6 331 0.0 1.6 0.00 0.00 0.00 61 1014.4
20260507034903 6 89 0.0 3.2 0.00 0.00 0.00 61 1014.4
20260507034404 6 1 0.0 3.2 0.00 0.00 0.00 61 1014.4
20260507033903 6 45 0.0 1.6 0.00 0.00 0.00 61 1014.3
20260507033404 6 1 0.0 1.6 0.00 0.00 0.00 61 1014.3
20260507032905 6 314 0.0 1.6 0.00 0.00 0.00 61 1014.3
20260507032404 6 331 1.6 3.2 0.00 0.00 0.00 61 1014.3
20260507031904 6 314 1.6 3.2 0.00 0.00 0.00 60 1014.3
20260507031405 6 296 1.6 3.2 0.00 0.00 0.00 60 1014.3
20260507031301 6 314 1.6 3.2 0.00 0.00 0.00 60 1014.3
20260507030404 6 314 1.6 3.2 0.00 0.00 0.00 60 1014.3
20260507025903 6 314 0.0 3.2 0.00 0.00 0.00 60 1014.3
20260507025404 6 314 1.6 3.2 0.00 0.00 0.00 60 1014.3
20260507024904 6 314 0.0 3.2 0.00 0.00 0.00 60 1014.3
20260507024405 6 310 1.6 3.2 0.00 0.00 0.00 60 1014.3
20260507024256 6 303 0.0 3.2 0.00 0.00 0.00 60 1014.2
20260507023405 6 269 1.6 3.2 0.00 0.00 0.00 60 1014.3
20260507022904 6 269 0.0 3.2 0.00 0.00 0.00 60 1014.3
20260507022406 6 306 1.6 3.2 0.00 0.00 0.00 60 1014.2
20260507022300 6 303 1.6 3.2 0.00 0.00 0.00 60 1014.3
20260507021405 7 314 0.0 3.2 0.00 0.00 0.00 59 1014.3
20260507020902 7 45 0.0 3.2 0.00 0.00 0.00 60 1014.2
20260507020804 7 314 1.6 3.2 0.00 0.00 0.00 60 1014.2
20260507015903 7 314 0.0 3.2 0.00 0.00 0.00 59 1014.1
20260507015404 7 331 1.6 3.2 0.00 0.00 0.00 59 1014.1
20260507014903 7 269 0.0 3.2 0.00 0.00 0.00 59 1014.0
20260507014404 7 341 0.0 3.2 0.00 0.00 0.00 59 1014.1
20260507014258 7 1 1.6 3.2 0.00 0.00 0.00 59 1014.2
20260507013405 7 314 1.6 3.2 0.00 0.00 0.00 59 1014.1
20260507012903 7 45 0.0 3.2 0.00 0.00 0.00 59 1014.0
20260507012404 7 331 1.6 3.2 0.00 0.00 0.00 59 1014.1
20260507011901 7 1 1.6 3.2 0.00 0.00 0.00 59 1014.1
20260507011402 7 286 1.6 3.2 0.00 0.00 0.00 59 1014.2
20260507011254 7 331 1.6 3.2 0.00 0.00 0.00 58 1014.2
20260507010401 7 314 1.6 1.6 0.00 0.00 0.00 58 1014.2
20260507005900 7 241 0.0 3.2 0.00 0.00 0.00 58 1014.1
20260507005800 7 324 0.0 3.2 0.00 0.00 0.00 58 1014.1
20260507004858 8 269 0.0 3.2 0.00 0.00 0.00 58 1014.1
20260507004358 8 314 1.6 3.2 0.00 0.00 0.00 58 1014.1
20260507003858 8 331 0.0 3.2 0.00 0.00 0.00 58 1014.1
20260507003359 8 314 0.0 3.2 0.00 0.00 0.00 57 1014.1
20260507002858 8 314 0.0 3.2 0.00 0.00 0.00 57 1014.2
20260507002355 8 296 0.0 3.2 0.00 0.00 0.00 57 1014.2
20260507001854 8 269 0.0 1.6 0.00 0.00 0.00 57 1014.2
20260507001754 8 1 0.0 3.2 0.00 0.00 0.00 57 1014.2
20260507001249 8 314 1.6 3.2 0.00 0.00 0.00 57 1014.2
20260507000825 8 45 1.6 4.8 0.00 0.00 0.00 57 1014.2
20260506235853 8 269 1.6 4.8 0.00 0.00 0.00 57 1014.2
20260506235353 8 314 1.6 3.2 0.00 0.00 0.00 57 1014.2
20260506235248 8 296 1.6 3.2 0.00 0.00 0.00 57 1014.2
20260506234349 8 296 1.6 4.8 0.00 0.00 0.00 56 1014.0
20260506233850 8 314 0.0 4.8 0.00 0.00 0.00 56 1014.0
20260506233349 8 45 1.6 4.8 0.00 0.00 0.00 56 1013.9
20260506233238 9 321 1.6 3.2 0.00 0.00 0.00 56 1014.0
20260506232347 9 324 1.6 4.8 0.00 0.00 0.00 56 1013.9
20260506231847 9 314 1.6 4.8 0.00 0.00 0.00 55 1013.9
20260506231348 9 45 1.6 3.2 0.00 0.00 0.00 55 1013.9
20260506230846 9 1 1.6 3.2 0.00 0.00 0.00 54 1013.9
20260506230348 10 314 0.0 3.2 0.00 0.00 0.00 54 1013.9
20260506225846 10 306 0.0 1.6 0.00 0.00 0.00 54 1013.9
20260506225747 10 303 0.0 3.2 0.00 0.00 0.00 54 1014.0
20260506224847 10 45 0.0 3.2 0.00 0.00 0.00 54 1014.0
20260506224347 10 178 0.0 3.2 0.00 0.00 0.00 53 1014.0
20260506223845 10 178 0.0 3.2 0.00 0.00 0.00 53 1014.0
20260506223744 10 331 0.0 3.2 0.00 0.00 0.00 53 1014.0
20260506222845 10 1 1.6 3.2 0.00 0.00 0.00 53 1013.9
20260506222347 10 35 1.6 3.2 0.00 0.00 0.00 53 1013.9
20260506221845 10 324 1.6 4.8 0.00 0.00 0.00 52 1013.8
20260506221346 10 1 1.6 4.8 0.00 0.00 0.00 52 1013.8
20260506220844 10 28 1.6 4.8 0.00 0.00 0.00 52 1013.8
20260506220346 10 39 1.6 6.4 0.00 0.00 0.00 52 1013.8
20260506220242 10 296 1.6 6.4 0.00 0.00 0.00 51 1013.7
20260506215347 10 38 1.6 4.8 0.00 0.00 0.00 51 1013.7
20260506214845 11 331 1.6 3.2 0.00 0.00 0.00 50 1013.7
20260506214345 11 314 1.6 3.2 0.00 0.00 0.00 50 1013.7
20260506213845 11 63 1.6 3.2 0.00 0.00 0.00 50 1013.7
20260506213345 11 28 1.6 6.4 0.00 0.00 0.00 50 1013.7
20260506212844 11 23 1.6 6.4 0.00 0.00 0.00 49 1013.7
20260506212345 11 324 1.6 4.8 0.00 0.00 0.00 49 1013.7
20260506211842 11 28 3.2 4.8 0.00 0.00 0.00 49 1013.7
20260506211347 11 310 1.6 6.4 0.00 0.00 0.00 49 1013.7
20260506210844 11 310 1.6 6.4 0.00 0.00 0.00 48 1013.7
20260506210745 11 331 1.6 4.8 0.00 0.00 0.00 48 1013.6
20260506210236 11 25 3.2 6.4 0.00 0.00 0.00 48 1013.6
20260506205516 11 20 1.6 6.4 0.00 0.00 0.00 47 1013.6
20260506204515 11 63 1.6 8.0 0.00 0.00 0.00 47 1013.6
20260506203343 11 56 1.6 4.8 0.00 0.00 0.00 46 1013.5
20260506202844 11 337 1.6 6.4 0.00 0.00 0.00 45 1013.5
20260506202741 11 28 1.6 6.4 0.00 0.00 0.00 45 1013.4
20260506201842 11 1 3.2 6.4 0.00 0.00 0.00 46 1013.4
20260506201344 11 16 1.6 4.8 0.00 0.00 0.00 46 1013.3
20260506200842 11 303 1.6 4.8 0.00 0.00 0.00 46 1013.3
20260506200343 11 309 1.6 8.0 0.00 0.00 0.00 45 1013.2
20260506195843 11 16 3.2 8.0 0.00 0.00 0.00 45 1013.2
20260506195342 11 1 3.2 4.8 0.00 0.00 0.00 46 1013.1
20260506194842 11 89 1.6 4.8 0.00 0.00 0.00 46 1013.1
20260506194344 11 1 1.6 4.8 0.00 0.00 0.00 46 1013.1
20260506193843 11 306 0.0 4.8 0.00 0.00 0.00 46 1012.9
20260506193343 12 303 1.6 4.8 0.00 0.00 0.00 46 1012.9
20260506192841 12 1 1.6 4.8 0.00 0.00 0.00 46 1012.9
20260506192342 12 350 0.0 6.4 0.00 0.00 0.00 46 1012.9
20260506192250 12 314 1.6 6.4 0.00 0.00 0.00 46 1012.8
20260506191512 12 314 1.6 6.4 0.00 0.00 0.00 46 1012.9
20260506190344 12 89 1.6 11.3 0.00 0.00 0.00 46 1012.6
20260506185840 12 329 1.6 8.0 0.00 0.00 0.00 45 1012.6
20260506185748 12 344 3.2 8.0 0.00 0.00 0.00 45 1012.6
20260506184841 12 35 3.2 8.0 0.00 0.00 0.00 45 1012.5
20260506184342 12 28 1.6 8.0 0.00 0.00 0.00 46 1012.5
20260506183841 12 89 3.2 8.0 0.00 0.00 0.00 45 1012.5
20260506183343 12 1 3.2 4.8 0.00 0.00 0.00 45 1012.5
20260506182839 12 45 1.6 6.4 0.00 0.00 0.00 45 1012.5
20260506182340 12 314 1.6 8.0 0.00 0.00 0.00 45 1012.4
20260506181838 12 296 3.2 8.0 0.00 0.00 0.00 45 1012.3
20260506181341 12 89 3.2 8.0 0.00 0.00 0.00 45 1012.2
20260506181233 12 300 1.6 6.4 0.00 0.00 0.00 45 1012.2
20260506180341 12 299 3.2 6.4 0.00 0.00 0.00 45 1012.1
20260506175839 12 63 1.6 6.4 0.00 0.00 0.00 45 1012.1
20260506175511 12 127 3.2 6.4 0.00 0.00 0.00 45 1012.0
20260506174739 12 331 3.2 8.0 0.00 0.00 0.00 44 1012.0
20260506173838 13 303 1.6 6.4 0.00 0.00 0.00 44 1011.9
20260506173340 13 314 1.6 6.4 0.00 0.00 0.00 44 1011.9
20260506172839 13 83 3.2 6.4 0.00 0.00 0.00 44 1011.9
20260506172341 13 45 1.6 6.4 0.00 0.00 0.00 44 1011.9
20260506172011 13 41 1.6 9.7 0.00 0.00 0.00 44 1011.8
20260506170841 13 1 3.2 11.3 0.00 0.00 0.00 43 1011.7
20260506170339 13 79 4.8 8.0 0.00 0.00 0.00 43 1011.8
20260506170240 13 324 3.2 9.7 0.00 0.00 0.00 42 1011.7
20260506165339 13 62 6.4 9.7 0.00 0.00 0.00 43 1011.7
20260506165234 13 72 3.2 6.4 0.00 0.00 0.00 42 1011.7
20260506164342 13 73 1.6 6.4 0.00 0.00 0.00 42 1011.7
20260506163839 13 321 3.2 6.4 0.00 0.00 0.00 42 1011.7
20260506163340 13 300 3.2 6.4 0.00 0.00 0.00 43 1011.8
20260506162837 13 76 1.6 6.4 0.00 0.00 0.00 43 1011.8
20260506162338 13 178 1.6 4.8 0.00 0.00 0.00 43 1011.7
20260506161838 13 206 1.6 4.8 0.00 0.00 0.00 45 1011.7
20260506161339 13 1 1.6 4.8 0.00 0.00 0.00 44 1011.8
20260506160837 13 331 1.6 4.8 0.00 0.00 0.00 44 1011.7
20260506160339 13 314 1.6 4.8 0.00 0.00 0.00 44 1011.8
20260506155838 13 65 1.6 6.4 0.00 0.00 0.00 44 1011.8
20260506155737 13 20 1.6 6.4 0.00 0.00 0.00 44 1012.0
20260506154837 13 54 1.6 6.4 0.00 0.00 0.00 44 1011.9
20260506154507 13 39 3.2 8.0 0.00 0.00 0.00 43 1011.9
20260506153337 13 38 3.2 6.4 0.00 0.00 0.00 43 1012.0
20260506152838 13 299 3.2 6.4 0.00 0.00 0.00 43 1011.9
20260506152339 13 45 1.6 6.4 0.00 0.00 0.00 43 1011.9
20260506151837 13 324 1.6 4.8 0.00 0.00 0.00 44 1011.9
20260506151337 13 45 1.6 4.8 0.00 0.00 0.00 44 1011.9
20260506151224 13 38 1.6 6.4 0.00 0.00 0.00 45 1012.0
20260506150337 13 223 3.2 8.0 0.00 0.00 0.00 44 1011.9
20260506150010 13 1 3.2 8.0 0.00 0.00 0.00 44 1012.0
20260506144835 13 314 3.2 6.4 0.00 0.00 0.00 43 1012.0
20260506144336 13 35 1.6 8.0 0.00 0.00 0.00 42 1012.0
20260506143835 13 306 3.2 8.0 0.00 0.00 0.00 42 1011.9
20260506143339 13 28 1.6 4.8 0.00 0.00 0.00 43 1011.9
20260506142834 13 10 3.2 8.0 0.00 0.00 0.00 43 1012.0
20260506142335 13 319 3.2 8.0 0.00 0.00 0.00 42 1011.9
20260506141835 13 241 1.6 9.7 0.00 0.00 0.00 41 1011.9
20260506141337 13 314 3.2 16.1 0.00 0.00 0.00 41 1011.9
20260506140834 13 323 3.2 16.1 0.00 0.00 0.00 41 1011.8
20260506140506 13 45 3.2 11.3 0.00 0.00 0.00 42 1011.8
20260506135335 13 28 3.2 14.5 0.00 0.00 0.00 41 1011.8
20260506134834 13 86 6.4 14.5 0.00 0.00 0.00 43 1011.9
20260506134335 13 23 3.2 11.3 0.00 0.00 0.00 41 1011.9
20260506134229 13 72 3.2 16.1 0.00 0.00 0.00 40 1011.8
20260506133335 13 314 3.2 16.1 0.00 0.00 0.00 39 1011.9
20260506133227 13 320 4.8 16.1 0.00 0.00 0.00 36 1011.9
20260506132335 13 324 3.2 16.1 0.00 0.00 0.00 39 1011.8
20260506131833 13 7 4.8 9.7 0.00 0.00 0.00 39 1011.8
20260506131335 13 38 3.2 14.5 0.00 0.00 0.00 40 1011.8
20260506131229 13 303 3.2 14.5 0.00 0.00 0.00 39 1011.9
20260506130334 13 8 4.8 11.3 0.00 0.00 0.00 39 1011.9
20260506125832 14 56 3.2 8.0 0.00 0.00 0.00 39 1011.9
20260506125334 14 44 3.2 8.0 0.00 0.00 0.00 39 1011.9
20260506124919 14 296 1.6 9.7 0.00 0.00 0.00 38 1011.8
20260506124910 13 320 4.8 9.7 0.00 0.00 0.00 39 1011.9
20260506124848 14 1 1.6 9.7 0.00 0.00 0.00 38 1011.9
20260506122832 13 45 4.8 14.5 0.00 0.00 0.00 40 1011.9
20260506122335 13 42 3.2 11.3 0.00 0.00 0.00 40 1011.9
20260506121832 13 6 4.8 11.3 0.00 0.00 0.00 38 1012.0
20260506121333 13 309 3.2 11.3 0.00 0.00 0.00 40 1011.9
20260506120833 13 327 4.8 11.3 0.00 0.00 0.00 40 1012.0
20260506120338 13 45 3.2 14.5 0.00 0.00 0.00 41 1011.9
20260506115832 13 35 4.8 14.5 0.00 0.00 0.00 42 1012.0
20260506115333 13 69 6.4 11.3 0.00 0.00 0.00 42 1012.0
20260506114831 13 329 3.2 9.7 0.00 0.00 0.00 42 1012.1
20260506114333 13 337 4.8 11.3 0.00 0.00 0.00 41 1012.1
20260506113833 13 317 4.8 11.3 0.00 0.00 0.00 41 1012.0
20260506113332 13 45 6.4 9.7 0.00 0.00 0.00 42 1012.0
20260506112830 13 1 6.4 11.3 0.00 0.00 0.00 42 1012.0
20260506112332 13 24 4.8 11.3 0.00 0.00 0.00 41 1012.1
20260506111830 13 329 6.4 16.1 0.00 0.00 0.00 39 1012.2
20260506111731 13 337 6.4 16.1 0.00 0.00 0.00 40 1012.0
20260506110830 12 58 6.4 16.1 0.00 0.00 0.00 42 1012.1
20260506110344 12 324 4.8 14.5 0.00 0.00 0.00 43 1012.2
20260506105830 12 344 1.6 8.0 0.00 0.00 0.00 47 1012.1
20260506105332 12 351 3.2 8.0 0.00 0.00 0.00 47 1012.2
20260506104830 12 262 3.2 9.7 0.00 0.00 0.00 47 1012.1
20260506104332 12 324 3.2 9.7 0.00 0.00 0.00 46 1012.1
20260506103830 12 51 3.2 9.7 0.00 0.00 0.00 46 1012.2
20260506103331 11 56 3.2 9.7 0.00 0.00 0.00 47 1012.2
20260506102830 11 331 3.2 8.0 0.00 0.00 0.00 46 1012.2
20260506102332 11 228 4.8 8.0 0.00 0.00 0.00 45 1012.3
20260506102226 11 213 3.2 9.7 0.00 0.00 0.00 46 1012.3
20260506101331 11 314 4.8 11.3 0.00 0.00 0.00 45 1012.2
20260506100829 11 1 3.2 17.7 0.00 0.00 0.00 46 1012.2
20260506100331 11 316 3.2 17.7 0.00 0.00 0.00 44 1012.3
20260506095828 11 1 3.2 17.7 0.00 0.00 0.00 46 1012.2
20260506095330 11 7 4.8 8.0 0.00 0.00 0.00 46 1012.1
20260506095221 11 45 3.2 11.3 0.00 0.00 0.00 46 1012.1
20260506094330 11 28 4.8 11.3 0.00 0.00 0.00 47 1012.2
20260506094236 11 351 3.2 11.3 0.00 0.00 0.00 48 1012.1
20260506093503 11 331 3.2 11.3 0.00 0.00 0.00 47 1012.2
20260506092329 11 45 3.2 6.4 0.00 0.00 0.00 48 1012.1
20260506091829 11 331 3.2 6.4 0.00 0.00 0.00 49 1012.1
20260506091741 10 331 3.2 8.0 0.00 0.00 0.00 49 1012.1
20260506090828 10 330 3.2 9.7 0.00 0.00 0.00 49 1012.2
20260506090329 10 320 4.8 9.7 0.00 0.00 0.00 48 1012.2
20260506085827 10 327 3.2 8.0 0.00 0.00 0.00 49 1012.3
20260506085329 11 310 3.2 17.7 0.00 0.00 0.00 48 1012.2
20260506084827 10 37 6.4 17.7 0.00 0.00 0.00 49 1012.2